sat.trackr.live / text

‹ back to catalog

QIANFAN-20

NORAD 61553 · 2024-185B

PAYLOAD ACTIVE UNKNOWN

§ Identity

Operator
Country
PRC
Launch date
2024-10-15
Launch site
TAISC
Launch vehicle
Mass (kg)
RCS (m²)

External: N2YO · Heavens-Above · Gunter

§ Orbital elements

Epoch: 2026-05-25T04:14:45.709152Z

Period
102.20 min
Inclination
88.9847°
Eccentricity
0.0005508
Mean motion
14.09001867 rev/d
Perigee alt
858.8 km
Apogee alt
866.8 km
Semi-major
7,240.9 km
B*
1.6019e-4
RAAN
59.6867°
Arg perigee
160.7360°
Mean anomaly
199.4033°
Rev number
9,250

§ Raw data

QIANFAN-201 61553U 24185B   26145.17691793  .00000291  00000+0  16019-3 0  99922 61553  88.9847  59.6867 0005508 160.7360 199.4033 14.09001867 92509

JSON: /api/v1/satellites/61553 · /tle

For live sub-satellite position, see the globe view (requires WebGL).

§ Visibility from observer

Set your observer location to see the next 7 days of passes ≥ 10°. The values pass through the URL so the page stays shareable.

No JS? Fill the form by hand. The geolocation button needs JavaScript.